Time,TemperatureF,DewpointF,PressureIn,WindDirection,WindDirectionDegrees,WindSpeedMPH,WindSpeedGustMPH,Humidity,HourlyPrecipIn,Conditions,Clouds,dailyrainin,SolarRadiationWatts/m^2,SoftwareType,DateUTC
2013-07-15 00:13:00,78.8,73.0,30.25,ESE,104,0.0,2.0,81,0.00,,,0.00,0,weatherlink.com 1.10,2013-07-15 04:13:00,
2013-07-15 00:28:00,78.6,72.0,30.25,ESE,104,0.0,1.0,81,0.00,,,0.00,0,weatherlink.com 1.10,2013-07-15 04:28:00,
2013-07-15 00:43:00,78.3,72.0,30.25,ESE,104,0.0,1.0,82,0.00,,,0.00,0,weatherlink.com 1.10,2013-07-15 04:43:00,
2013-07-15 00:59:00,78.2,72.0,30.24,ESE,104,0.0,0.0,82,0.00,,,0.00,0,weatherlink.com 1.10,2013-07-15 04:59:00,
2013-07-15 01:14:00,77.9,72.0,30.24,ESE,104,0.0,0.0,83,0.00,,,0.00,0,weatherlink.com 1.10,2013-07-15 05:14:00,
2013-07-15 01:29:00,77.8,72.0,30.24,ESE,104,0.0,0.0,83,0.00,,,0.00,0,weatherlink.com 1.10,2013-07-15 05:29:00,
2013-07-15 01:44:00,77.5,72.0,30.24,ESE,104,1.0,1.0,84,0.00,,,0.00,0,weatherlink.com 1.10,2013-07-15 05:44:00,
2013-07-15 01:59:00,77.1,72.0,30.24,ESE,104,0.0,1.0,85,0.00,,,0.00,0,weatherlink.com 1.10,2013-07-15 05:59:00,
2013-07-15 02:14:00,76.7,72.0,30.24,ESE,104,0.0,1.0,86,0.00,,,0.00,0,weatherlink.com 1.10,2013-07-15 06:14:00,
2013-07-15 02:29:00,76.4,72.0,30.23,ESE,104,0.0,0.0,86,0.00,,,0.00,0,weatherlink.com 1.10,2013-07-15 06:29:00,
2013-07-15 02:44:00,76.1,72.0,30.23,ESE,104,0.0,0.0,87,0.00,,,0.00,0,weatherlink.com 1.10,2013-07-15 06:44:00,
2013-07-15 02:59:00,75.8,72.0,30.23,ESE,104,1.0,1.0,88,0.00,,,0.00,0,weatherlink.com 1.10,2013-07-15 06:59:00,
2013-07-15 03:14:00,75.9,72.0,30.23,ESE,104,0.0,0.0,87,0.00,,,0.00,0,weatherlink.com 1.10,2013-07-15 07:14:00,
2013-07-15 03:29:00,75.7,72.0,30.23,ESE,104,0.0,0.0,88,0.00,,,0.00,0,weatherlink.com 1.10,2013-07-15 07:29:00,
2013-07-15 03:44:00,75.7,72.0,30.23,ESE,104,0.0,1.0,88,0.00,,,0.00,0,weatherlink.com 1.10,2013-07-15 07:44:00,
2013-07-15 03:59:00,75.7,72.0,30.23,ESE,104,0.0,1.0,88,0.00,,,0.00,0,weatherlink.com 1.10,2013-07-15 07:59:00,
2013-07-15 04:14:00,75.5,72.0,30.23,ESE,104,0.0,0.0,88,0.00,,,0.00,0,weatherlink.com 1.10,2013-07-15 08:14:00,
2013-07-15 04:29:00,75.3,72.0,30.23,NE,36,0.0,2.0,88,0.00,,,0.00,0,weatherlink.com 1.10,2013-07-15 08:29:00,
2013-07-15 04:44:00,75.1,72.0,30.24,NE,36,0.0,1.0,89,0.00,,,0.00,0,weatherlink.com 1.10,2013-07-15 08:44:00,
2013-07-15 04:59:00,74.8,71.0,30.23,NE,36,0.0,1.0,89,0.00,,,0.00,0,weatherlink.com 1.10,2013-07-15 08:59:00,
2013-07-15 05:14:00,74.6,72.0,30.24,NE,36,0.0,0.0,90,0.00,,,0.00,0,weatherlink.com 1.10,2013-07-15 09:14:00,
2013-07-15 05:29:00,74.3,71.0,30.24,NE,36,0.0,0.0,90,0.00,,,0.00,9,weatherlink.com 1.10,2013-07-15 09:29:00,
2013-07-15 05:44:00,74.5,72.0,30.24,NE,36,0.0,1.0,90,0.00,,,0.00,18,weatherlink.com 1.10,2013-07-15 09:44:00,
2013-07-15 05:59:00,75.0,72.0,30.23,NNE,24,1.0,2.0,89,0.00,,,0.00,39,weatherlink.com 1.10,2013-07-15 09:59:00,
2013-07-15 06:14:00,75.6,72.0,30.23,NW,319,1.0,5.0,88,0.00,,,0.00,70,weatherlink.com 1.10,2013-07-15 10:14:00,
2013-07-15 06:29:00,76.4,72.0,30.24,WNW,301,2.0,4.0,87,0.00,,,0.00,148,weatherlink.com 1.10,2013-07-15 10:29:00,
2013-07-15 06:44:00,77.1,72.0,30.24,West,278,3.0,4.0,85,0.00,,,0.00,84,weatherlink.com 1.10,2013-07-15 10:44:00,
2013-07-15 06:59:00,77.0,72.0,30.24,NW,304,1.0,3.0,85,0.00,,,0.00,79,weatherlink.com 1.10,2013-07-15 10:59:00,
2013-07-15 07:14:00,77.2,72.0,30.24,NW,304,1.0,2.0,85,0.00,,,0.00,102,weatherlink.com 1.10,2013-07-15 11:14:00,
2013-07-15 07:29:00,78.1,73.0,30.24,NNW,331,2.0,4.0,83,0.00,,,0.00,218,weatherlink.com 1.10,2013-07-15 11:29:00,
2013-07-15 07:44:00,78.3,72.0,30.24,NW,314,2.0,7.0,81,0.00,,,0.00,350,weatherlink.com 1.10,2013-07-15 11:44:00,
2013-07-15 07:59:00,79.6,73.0,30.24,NNW,344,1.0,4.0,79,0.00,,,0.00,404,weatherlink.com 1.10,2013-07-15 11:59:00,
2013-07-15 08:14:00,81.2,73.0,30.25,NW,309,3.0,4.0,77,0.00,,,0.00,362,weatherlink.com 1.10,2013-07-15 12:14:00,
2013-07-15 08:29:00,81.8,73.0,30.25,NNW,330,3.0,6.0,74,0.00,,,0.00,341,weatherlink.com 1.10,2013-07-15 12:29:00,
2013-07-15 08:45:00,82.0,73.0,30.25,NW,306,1.0,7.0,73,0.00,,,0.00,526,weatherlink.com 1.10,2013-07-15 12:45:00,
2013-07-15 09:00:00,83.4,73.0,30.24,NW,319,5.0,6.0,71,0.00,,,0.00,571,weatherlink.com 1.10,2013-07-15 13:00:00,
2013-07-15 09:15:00,84.1,73.0,30.24,WNW,289,0.0,8.0,69,0.00,,,0.00,606,weatherlink.com 1.10,2013-07-15 13:15:00,
2013-07-15 09:30:00,84.4,73.0,30.24,North,11,6.0,8.0,68,0.00,,,0.00,633,weatherlink.com 1.10,2013-07-15 13:30:00,
2013-07-15 09:45:00,84.3,72.0,30.24,NW,314,4.0,9.0,67,0.00,,,0.00,666,weatherlink.com 1.10,2013-07-15 13:45:00,
2013-07-15 10:00:00,85.1,72.0,30.23,NNE,21,3.0,9.0,66,0.00,,,0.00,703,weatherlink.com 1.10,2013-07-15 14:00:00,
2013-07-15 10:15:00,86.3,72.0,30.23,North,355,5.0,9.0,63,0.00,,,0.00,816,weatherlink.com 1.10,2013-07-15 14:15:00,
2013-07-15 10:30:00,86.6,72.0,30.23,NNE,13,2.0,8.0,62,0.00,,,0.00,788,weatherlink.com 1.10,2013-07-15 14:30:00,
2013-07-15 10:45:00,86.8,71.0,30.23,NNW,333,5.0,8.0,60,0.00,,,0.00,823,weatherlink.com 1.10,2013-07-15 14:45:00,
2013-07-15 11:00:00,87.7,71.0,30.22,NNE,24,7.0,8.0,58,0.00,,,0.00,877,weatherlink.com 1.10,2013-07-15 15:00:00,
2013-07-15 11:15:00,88.0,71.0,30.22,WSW,249,1.0,10.0,58,0.00,,,0.00,947,weatherlink.com 1.10,2013-07-15 15:15:00,
2013-07-15 11:30:00,88.9,71.0,30.22,NNW,332,2.0,10.0,55,0.00,,,0.00,1046,weatherlink.com 1.10,2013-07-15 15:30:00,
2013-07-15 11:45:00,88.6,72.0,30.22,North,11,7.0,11.0,59,0.00,,,0.00,1086,weatherlink.com 1.10,2013-07-15 15:45:00,
2013-07-15 12:00:00,89.4,72.0,30.22,WNW,302,2.0,10.0,57,0.00,,,0.00,1143,weatherlink.com 1.10,2013-07-15 16:00:00,
2013-07-15 12:15:00,88.7,72.0,30.21,NW,313,3.0,9.0,58,0.00,,,0.00,1083,weatherlink.com 1.10,2013-07-15 16:15:00,
2013-07-15 12:30:00,89.6,72.0,30.21,ENE,58,4.0,10.0,56,0.00,,,0.00,267,weatherlink.com 1.10,2013-07-15 16:30:00,
2013-07-15 12:45:00,87.6,72.0,30.20,West,281,1.0,7.0,60,0.00,,,0.00,239,weatherlink.com 1.10,2013-07-15 16:45:00,
2013-07-15 13:00:00,87.6,72.0,30.20,ENE,67,2.0,6.0,60,0.00,,,0.00,770,weatherlink.com 1.10,2013-07-15 17:00:00,
2013-07-15 13:15:00,89.1,72.0,30.20,NE,55,2.0,5.0,58,0.00,,,0.00,752,weatherlink.com 1.10,2013-07-15 17:15:00,
2013-07-15 13:30:00,88.8,72.0,30.19,NNE,18,3.0,7.0,58,0.00,,,0.00,295,weatherlink.com 1.10,2013-07-15 17:30:00,
2013-07-15 14:00:00,90.5,72.0,30.19,NNE,24,3.0,9.0,54,0.00,,,0.00,1065,weatherlink.com 1.10,2013-07-15 18:00:00,
2013-07-15 14:16:00,91.0,70.0,30.18,NE,55,4.0,8.0,51,0.00,,,0.00,287,weatherlink.com 1.10,2013-07-15 18:16:00,
2013-07-15 14:46:00,91.2,70.0,30.17,North,11,7.0,11.0,50,0.00,,,0.00,1042,weatherlink.com 1.10,2013-07-15 18:46:00,
2013-07-15 15:01:00,91.0,70.0,30.17,North,5,5.0,10.0,50,0.00,,,0.00,320,weatherlink.com 1.10,2013-07-15 19:01:00,
2013-07-15 15:16:00,90.8,71.0,30.17,NE,41,5.0,9.0,52,0.00,,,0.00,455,weatherlink.com 1.10,2013-07-15 19:16:00,
2013-07-15 15:31:00,89.2,70.0,30.17,NE,50,2.0,11.0,53,0.00,,,0.00,246,weatherlink.com 1.10,2013-07-15 19:31:00,
2013-07-15 16:01:00,88.3,70.0,30.17,ENE,70,3.0,5.0,54,0.00,,,0.00,311,weatherlink.com 1.10,2013-07-15 20:01:00,
2013-07-15 16:16:00,88.2,69.0,30.17,ESE,114,2.0,8.0,54,0.00,,,0.00,262,weatherlink.com 1.10,2013-07-15 20:16:00,
2013-07-15 16:31:00,87.9,70.0,30.16,NE,52,1.0,5.0,56,0.00,,,0.00,230,weatherlink.com 1.10,2013-07-15 20:31:00,
2013-07-15 17:01:00,88.0,70.0,30.16,SE,146,1.0,3.0,56,0.00,,,0.00,220,weatherlink.com 1.10,2013-07-15 21:01:00,
2013-07-15 17:31:00,88.3,70.0,30.15,SE,137,1.0,4.0,55,0.00,,,0.00,281,weatherlink.com 1.10,2013-07-15 21:31:00,
2013-07-15 18:01:00,88.8,71.0,30.14,South,174,0.0,4.0,55,0.00,,,0.00,120,weatherlink.com 1.10,2013-07-15 22:01:00,
2013-07-15 18:46:00,90.2,70.0,30.15,South,186,0.0,3.0,52,0.00,,,0.00,211,weatherlink.com 1.10,2013-07-15 22:46:00,
2013-07-15 19:01:00,90.3,70.0,30.14,South,176,1.0,4.0,51,0.00,,,0.00,134,weatherlink.com 1.10,2013-07-15 23:01:00,
2013-07-15 19:16:00,90.1,70.0,30.15,South,182,0.0,2.0,52,0.00,,,0.00,81,weatherlink.com 1.10,2013-07-15 23:16:00,
2013-07-15 19:46:00,89.6,71.0,30.15,SSW,209,0.0,3.0,54,0.00,,,0.00,37,weatherlink.com 1.10,2013-07-15 23:46:00,
2013-07-15 20:16:00,87.9,72.0,30.15,SW,217,0.0,3.0,60,0.00,,,0.00,7,weatherlink.com 1.10,2013-07-16 00:16:00,
2013-07-15 20:31:00,87.0,72.0,30.15,SSW,213,0.0,2.0,61,0.00,,,0.00,0,weatherlink.com 1.10,2013-07-16 00:31:00,
2013-07-15 20:46:00,86.5,71.0,30.16,West,263,0.0,2.0,61,0.00,,,0.00,0,weatherlink.com 1.10,2013-07-16 00:46:00,
2013-07-15 21:01:00,85.8,72.0,30.16,WSW,244,0.0,2.0,63,0.00,,,0.00,0,weatherlink.com 1.10,2013-07-16 01:01:00,
2013-07-15 21:16:00,85.2,73.0,30.17,West,267,0.0,3.0,66,0.00,,,0.00,0,weatherlink.com 1.10,2013-07-16 01:16:00,
2013-07-15 21:31:00,84.6,73.0,30.17,SW,227,1.0,6.0,69,0.00,,,0.00,0,weatherlink.com 1.10,2013-07-16 01:31:00,
2013-07-15 21:46:00,84.0,73.0,30.17,WSW,244,1.0,3.0,70,0.00,,,0.00,0,weatherlink.com 1.10,2013-07-16 01:46:00,
2013-07-15 22:01:00,83.6,73.0,30.17,West,276,1.0,3.0,71,0.00,,,0.00,0,weatherlink.com 1.10,2013-07-16 02:01:00,
2013-07-15 22:16:00,83.4,74.0,30.17,West,259,3.0,4.0,73,0.00,,,0.00,0,weatherlink.com 1.10,2013-07-16 02:16:00,
2013-07-15 22:31:00,82.9,74.0,30.17,SW,229,0.0,4.0,74,0.00,,,0.00,0,weatherlink.com 1.10,2013-07-16 02:31:00,
2013-07-15 22:46:00,82.7,74.0,30.17,West,272,1.0,3.0,75,0.00,,,0.00,0,weatherlink.com 1.10,2013-07-16 02:46:00,
2013-07-15 23:01:00,82.3,74.0,30.17,WSW,252,1.0,3.0,76,0.00,,,0.00,0,weatherlink.com 1.10,2013-07-16 03:01:00,
2013-07-15 23:16:00,81.9,74.0,30.17,West,274,0.0,2.0,77,0.00,,,0.00,0,weatherlink.com 1.10,2013-07-16 03:16:00,
2013-07-15 23:31:00,81.4,74.0,30.17,West,274,0.0,1.0,78,0.00,,,0.00,0,weatherlink.com 1.10,2013-07-16 03:31:00,
2013-07-15 23:46:00,81.1,74.0,30.17,West,274,2.0,2.0,79,0.00,,,0.00,0,weatherlink.com 1.10,2013-07-16 03:46:00,